• In Russia
  • List of Countries
  • For 7 days
  • Water Temperature
  • Satellite Maps
  • Weather Map
  • Weather Widgets
  • user-avatar
    Login

    Hourly Weather Shusha

    Today, 27 March, Monday

    Time Temperature Precipitation Wind Pressure Humidity
    00:00 +3°C° 0 mm 2 mps 657 mmHg 67%
    01:00 +3°C° 0 mm 2 mps 657 mmHg 66%
    02:00 +3°C° 0 mm 2 mps 657 mmHg 65%
    03:00 +3°C° 0 mm 2 mps 656 mmHg 64%
    04:00 +3°C° 0 mm 2 mps 656 mmHg 65%
    05:00 +3°C° 0 mm 2 mps 656 mmHg 65%
    06:00 +2°C° 0 mm 2 mps 656 mmHg 66%
    07:00 +5°C° 0 mm 2 mps 657 mmHg 59%
    08:00 +8°C° 0 mm 2 mps 658 mmHg 51%
    09:00 +12°C° 0 mm 2 mps 658 mmHg 44%
    10:00 +13°C° 0 mm 2 mps 658 mmHg 41%
    11:00 +13°C° 0 mm 3 mps 658 mmHg 38%
    12:00 +16°C° 0 mm 3 mps 658 mmHg 35%
    13:00 +16°C° 0 mm 3 mps 658 mmHg 35%
    14:00 +15°C° 0 mm 4 mps 657 mmHg 35%
    15:00 +15°C° 0 mm 4 mps 657 mmHg 35%
    16:00 +13°C° 0 mm 3 mps 656 mmHg 41%
    17:00 +12°C° 0 mm 2 mps 656 mmHg 47%
    18:00 +9°C° 0 mm 2 mps 655 mmHg 53%
    19:00 +8°C° 0 mm 2 mps 655 mmHg 55%
    20:00 +7°C° 0 mm 2 mps 655 mmHg 57%
    21:00 +5°C° 0 mm 3 mps 656 mmHg 58%
    22:00 +6°C° 0 mm 2 mps 655 mmHg 59%
    23:00 +6°C° 0 mm 2 mps 655 mmHg 59%

    Tomorrow, 28 March, Tuesday

    Time Temperature Precipitation Wind Pressure Humidity
    00:00 +5°C° 0 mm 2 mps 655 mmHg 60%
    01:00 +5°C° 0 mm 2 mps 655 mmHg 60%
    02:00 +5°C° 0 mm 2 mps 655 mmHg 61%
    03:00 +4°C° 0 mm 2 mps 655 mmHg 61%
    04:00 +4°C° 0 mm 2 mps 655 mmHg 62%
    05:00 +4°C° 0 mm 2 mps 655 mmHg 63%
    06:00 +4°C° 0 mm 2 mps 655 mmHg 64%
    07:00 +6°C° 0 mm 2 mps 656 mmHg 59%
    08:00 +8°C° 0 mm 3 mps 657 mmHg 54%
    09:00 +8°C° 0 mm 4 mps 658 mmHg 50%
    10:00 +10°C° 0.1 mm 4 mps 658 mmHg 50%
    11:00 +10°C° 0.1 mm 4 mps 658 mmHg 51%
    12:00 +10°C° 0.1 mm 4 mps 658 mmHg 51%
    13:00 +10°C° 0.2 mm 4 mps 658 mmHg 53%
    14:00 +8°C° 0.2 mm 4 mps 658 mmHg 54%
    15:00 +9°C° 0.2 mm 3 mps 657 mmHg 56%
    16:00 +8°C° 0.2 mm 3 mps 658 mmHg 60%
    17:00 +7°C° 0.2 mm 2 mps 658 mmHg 64%
    18:00 +6°C° 0.2 mm 2 mps 658 mmHg 68%
    19:00 +6°C° 0 mm 1 mps 658 mmHg 72%
    20:00 +4°C° 0 mm 1 mps 658 mmHg 76%
    21:00 +3°C° 0 mm 1 mps 658 mmHg 79%
    22:00 +3°C° 0 mm 1 mps 658 mmHg 79%
    23:00 +3°C° 0 mm 1 mps 658 mmHg 79%

    Day after tomorrow, 29 March, Wednesday

    Time Temperature Precipitation Wind Pressure Humidity
    00:00 +2°C° 0 mm 1 mps 657 mmHg 78%
    01:00 +2°C° 0 mm 1 mps 657 mmHg 78%
    02:00 +2°C° 0 mm 1 mps 657 mmHg 78%
    03:00 +2°C° 0 mm 1 mps 657 mmHg 79%
    04:00 +1°C° 0 mm 1 mps 657 mmHg 79%
    05:00 +1°C° 0 mm 1 mps 657 mmHg 79%
    06:00 +1°C° 0 mm 1 mps 657 mmHg 80%
    07:00 +4°C° 0 mm 1 mps 658 mmHg 70%
    08:00 +6°C° 0 mm 2 mps 659 mmHg 59%
    09:00 +8°C° 0 mm 2 mps 659 mmHg 49%
    10:00 +9°C° 0 mm 2 mps 660 mmHg 46%
    11:00 +12°C° 0 mm 2 mps 660 mmHg 43%
    12:00 +12°C° 0 mm 3 mps 660 mmHg 39%
    13:00 +12°C° 0 mm 3 mps 660 mmHg 40%
    14:00 +12°C° 0 mm 3 mps 660 mmHg 40%
    15:00 +12°C° 0 mm 3 mps 660 mmHg 40%
    16:00 +10°C° 0 mm 2 mps 660 mmHg 47%
    17:00 +9°C° 0 mm 2 mps 660 mmHg 54%
    18:00 +8°C° 0 mm 1 mps 659 mmHg 61%
    19:00 +6°C° 0 mm 1 mps 660 mmHg 67%
    20:00 +5°C° 0 mm 1 mps 660 mmHg 72%
    21:00 +4°C° 0 mm 1 mps 661 mmHg 77%
    22:00 +3°C° 0 mm 1 mps 661 mmHg 80%
    23:00 +3°C° 0 mm 1 mps 661 mmHg 82%

    30 March, Thursday

    Time Temperature Precipitation Wind Pressure Humidity
    00:00 +2°C° 0 mm 1 mps 661 mmHg 85%
    01:00 +2°C° 0 mm 1 mps 661 mmHg 87%
    02:00 +1°C° 0 mm 1 mps 661 mmHg 89%
    03:00 +1°C° 0 mm 1 mps 661 mmHg 91%
    04:00 +1°C° 0 mm 1 mps 661 mmHg 91%
    05:00 +1°C° 0 mm 1 mps 662 mmHg 91%
    06:00 +1°C° 0 mm 1 mps 662 mmHg 91%
    07:00 +3°C° 0 mm 1 mps 662 mmHg 83%
    08:00 +5°C° 0 mm 1 mps 663 mmHg 76%
    09:00 +5°C° 0 mm 2 mps 663 mmHg 68%
    10:00 +6°C° 0 mm 2 mps 663 mmHg 65%
    11:00 +7°C° 0 mm 2 mps 663 mmHg 62%
    12:00 +8°C° 0 mm 2 mps 662 mmHg 59%
    13:00 +8°C° 0 mm 2 mps 662 mmHg 59%
    14:00 +9°C° 0 mm 2 mps 661 mmHg 58%
    15:00 +9°C° 0 mm 2 mps 660 mmHg 58%
    16:00 +7°C° 0 mm 2 mps 660 mmHg 66%
    17:00 +7°C° 0 mm 1 mps 659 mmHg 74%
    18:00 +5°C° 0 mm 1 mps 659 mmHg 82%
    19:00 +5°C° 0 mm 1 mps 659 mmHg 82%
    20:00 +4°C° 0 mm 1 mps 659 mmHg 83%
    21:00 +3°C° 0 mm 1 mps 659 mmHg 84%
    22:00 +3°C° 0 mm 1 mps 658 mmHg 82%
    23:00 +3°C° 0 mm 1 mps 658 mmHg 80%

    31 March, Friday

    Time Temperature Precipitation Wind Pressure Humidity
    00:00 +3°C° 0 mm 1 mps 658 mmHg 78%
    01:00 +3°C° 0 mm 1 mps 658 mmHg 77%
    02:00 +3°C° 0 mm 1 mps 657 mmHg 76%
    03:00 +3°C° 0 mm 1 mps 657 mmHg 75%
    04:00 +3°C° 0 mm 1 mps 657 mmHg 74%
    05:00 +3°C° 0 mm 1 mps 657 mmHg 73%
    06:00 +3°C° 0 mm 1 mps 657 mmHg 72%
    07:00 +5°C° 0 mm 1 mps 658 mmHg 65%
    08:00 +8°C° 0 mm 1 mps 659 mmHg 58%
    09:00 +10°C° 0 mm 1 mps 659 mmHg 51%
    10:00 +11°C° 0 mm 1 mps 659 mmHg 48%
    11:00 +12°C° 0 mm 2 mps 659 mmHg 46%
    12:00 +12°C° 0 mm 3 mps 659 mmHg 43%
    13:00 +12°C° 0.1 mm 3 mps 659 mmHg 44%
    14:00 +12°C° 0.1 mm 3 mps 659 mmHg 46%
    15:00 +12°C° 0.1 mm 3 mps 659 mmHg 47%
    16:00 +10°C° 0 mm 2 mps 659 mmHg 53%
    17:00 +9°C° 0 mm 2 mps 659 mmHg 59%
    18:00 +7°C° 0 mm 2 mps 659 mmHg 65%
    19:00 +6°C° 0.1 mm 2 mps 659 mmHg 70%
    20:00 +5°C° 0.1 mm 2 mps 660 mmHg 75%
    21:00 +3°C° 0.1 mm 3 mps 660 mmHg 80%
    22:00 +3°C° 0.4 mm 3 mps 660 mmHg 83%
    23:00 +2°C° 0.4 mm 3 mps 660 mmHg 86%

    1 April, Saturday

    Time Temperature Precipitation Wind Pressure Humidity
    00:00 +2°C° 0.4 mm 3 mps 660 mmHg 89%
    01:00 +1°C° 0.4 mm 3 mps 660 mmHg 89%
    02:00 +1°C° 0.4 mm 3 mps 660 mmHg 90%
    03:00 0°C° 0.4 mm 3 mps 660 mmHg 91%
    04:00 -1°C° 0.2 mm 4 mps 660 mmHg 91%
    05:00 -2°C° 0.2 mm 4 mps 660 mmHg 91%
    06:00 -2°C° 0.2 mm 4 mps 661 mmHg 91%
    07:00 -1°C° 0.4 mm 3 mps 661 mmHg 89%
    08:00 -1°C° 0.4 mm 3 mps 661 mmHg 87%
    09:00 -1°C° 0.4 mm 3 mps 661 mmHg 84%
    10:00 0°C° 0.4 mm 3 mps 661 mmHg 82%
    11:00 0°C° 0.4 mm 3 mps 661 mmHg 80%
    12:00 +1°C° 0.4 mm 3 mps 661 mmHg 78%
    13:00 +1°C° 0.1 mm 3 mps 661 mmHg 78%
    14:00 +1°C° 0.1 mm 3 mps 660 mmHg 78%
    15:00 +2°C° 0.1 mm 3 mps 660 mmHg 78%
    16:00 +2°C° 0.1 mm 2 mps 660 mmHg 80%
    17:00 +1°C° 0.1 mm 2 mps 659 mmHg 83%
    18:00 +1°C° 0.1 mm 2 mps 659 mmHg 86%
    19:00 -1°C° 0.4 mm 2 mps 659 mmHg 88%
    20:00 -1°C° 0.4 mm 2 mps 659 mmHg 89%
    21:00 -2°C° 0.4 mm 2 mps 659 mmHg 90%
    22:00 -2°C° 0.9 mm 2 mps 659 mmHg 91%
    23:00 -2°C° 0.9 mm 2 mps 659 mmHg 92%
    Show more